[[{"header":{"parameterUnit":"m.s-1","parameterCategory":1,"la1":30.2992,"la2":30.254,"lo1":-89.0895,"lo2":-89.0443,"dy":0.0025,"dx":0.0025,"nx":19,"ny":19,"refTime":"2026-03-07T09:00:00:Z","depth":0,"parameterNumber":2,"parameterNumberName":"U-component_of_WINDS"},"data":[0,0,0,-1.3402,-1.3402,-1.3385,-1.3385,-1.337,-1.337,0,0,0,0,0,0,0,0,0,0,0,-1.3413,-1.3413,-1.3402,-1.3402,-1.3385,-1.3385,-1.337,-1.337,0,0,0,0,0,0,0,0,0,0,0,-1.3413,-1.3413,-1.3413,-1.3402,-1.3385,-1.3385,-1.3371,-1.338,0,0,0,0,0,0,0,0,0,0,-1.3396,-1.3411,-1.3413,-1.3413,-1.3402,-1.3385,-1.3385,-1.3381,-1.338,-1.3382,0,-1.3386,0,-1.3378,-1.337,-1.337,0,0,0,-1.3398,-1.3412,-1.3402,-1.3413,-1.3402,-1.3385,-1.3391,-1.338,-1.3379,-1.3381,-1.3386,-1.3385,-1.3378,-1.337,-1.337,-1.3397,-1.3397,0,0,-1.3399,-1.3412,-1.3403,-1.3402,-1.3406,-1.3392,-1.3391,-1.3379,-1.3385,-1.3385,-1.3384,-1.3378,-1.337,-1.337,-1.3397,-1.3397,0,0,0,-1.3404,-1.3413,-1.3404,-1.3403,-1.3399,-1.3391,-1.339,-1.3386,-1.3382,-1.3384,-1.3377,-1.337,-1.337,-1.3396,-1.3397,-1.3426,0,0,0,-1.3405,-1.3417,-1.3404,-1.3413,-1.34,-1.3392,-1.3397,-1.3382,-1.3381,-1.3377,-1.337,-1.337,-1.3396,-1.3397,-1.3424,-1.3437,0,0,0,-1.3412,-1.3417,-1.3417,-1.3414,-1.3407,-1.3392,-1.3387,-1.3382,-1.3377,-1.337,-1.337,-1.3396,-1.3397,-1.3423,-1.3435,-1.3447,0,0,0,-1.3424,-1.3443,-1.3418,-1.3437,-1.3407,-1.3411,-1.3387,-1.3389,-1.3387,-1.337,-1.3396,-1.3397,-1.3423,-1.3433,-1.3446,-1.346,-1.3467,0,0,-1.3456,-1.3448,-1.3458,-1.3434,-1.3446,-1.3413,-1.3429,-1.3413,-1.34,-1.3399,-1.3399,-1.3425,-1.3435,-1.3447,-1.3506,-1.3512,0,0,0,-1.3473,-1.348,-1.348,-1.3479,-1.3468,-1.3459,-1.344,-1.3434,-1.3433,-1.3402,-1.3433,-1.3439,-1.3445,-1.3451,-1.3456,-1.346,-1.3401,-1.3401,-1.34,-1.3537,-1.3519,-1.3535,-1.3515,-1.3514,-1.3494,-1.3491,-1.348,-1.3462,-1.3469,-1.3468,-1.3507,-1.3514,-1.3518,-1.3523,-1.3475,-1.3476,-1.3476,-1.3476,-1.3582,-1.3589,-1.3565,-1.3571,-1.3552,-1.3556,-1.3538,-1.3525,-1.3526,-1.3506,-1.3511,-1.349,-1.3525,-1.3528,-1.3478,-1.3477,-1.3477,-1.3477,-1.3477,-1.3621,-1.3621,-1.3614,-1.361,-1.3609,-1.3588,-1.359,-1.3573,-1.3556,-1.3562,-1.3558,-1.3557,-1.3553,-1.3561,-1.3562,-1.3562,-1.3562,-1.3562,-1.3562,-1.3664,-1.3655,-1.3659,-1.365,-1.3646,-1.364,-1.362,-1.3616,-1.3607,-1.3594,-1.3593,-1.3574,-1.3533,-1.3522,-1.3564,-1.3563,-1.3563,-1.3563,-1.3563,-1.3713,-1.3699,-1.3706,-1.3703,-1.3689,-1.3689,-1.3667,-1.366,-1.3654,-1.3655,-1.3635,-1.3608,-1.3598,-1.3593,-1.3584,-1.364,-1.364,-1.364,-1.364,-1.3745,-1.3739,-1.3741,-1.3737,-1.3731,-1.3712,-1.3718,-1.3703,-1.3685,-1.368,-1.3669,-1.3656,-1.3653,-1.3645,-1.3639,-1.363,-1.3696,-1.3697,-1.3697,-1.3774,-1.3766,-1.3776,-1.3759,-1.3747,-1.3737,-1.3742,-1.3737,-1.3714,-1.3698,-1.3675,-1.3673,-1.3651,-1.3645,-1.3628,-1.362,-1.3603,0,0]},{"header":{"parameterUnit":"m.s-1","parameterCategory":1,"la1":30.2992,"la2":30.254,"lo1":-89.0895,"lo2":-89.0443,"dy":0.0025,"dx":0.0025,"nx":19,"ny":19,"refTime":"2026-03-07T09:00:00:Z","depth":0,"parameterNumber":3,"parameterNumberName":"V-component_of_WINDS"},"data":[0,0,0,1.8533,1.8536,1.8683,1.8684,1.8861,1.8863,0,0,0,0,0,0,0,0,0,0,0,1.8481,1.8482,1.8532,1.8536,1.8683,1.8684,1.8861,1.8863,0,0,0,0,0,0,0,0,0,0,0,1.8481,1.8482,1.8483,1.8536,1.8683,1.8684,1.8861,1.8754,0,0,0,0,0,0,0,0,0,0,1.8613,1.8558,1.8482,1.8483,1.8537,1.8683,1.8684,1.8749,1.876,1.879,0,1.8813,0,1.8841,1.8874,1.8875,0,0,0,1.8542,1.8548,1.8594,1.8483,1.8539,1.8682,1.8618,1.8755,1.8769,1.8805,1.8816,1.8823,1.8844,1.8875,1.8876,1.9026,1.9026,0,0,1.8534,1.8504,1.8585,1.8602,1.8578,1.8613,1.8623,1.8764,1.8773,1.8816,1.8827,1.8847,1.8876,1.8878,1.9026,1.9026,0,0,0,1.8506,1.8498,1.8541,1.8595,1.8622,1.8618,1.8628,1.8767,1.8784,1.8829,1.8849,1.8877,1.8879,1.9025,1.9026,1.9019,0,0,0,1.8502,1.8482,1.8538,1.8521,1.8619,1.8696,1.8628,1.8774,1.8791,1.8848,1.8877,1.8881,1.9025,1.9026,1.9018,1.9021,0,0,0,1.8475,1.8479,1.8498,1.8519,1.8581,1.8694,1.8719,1.8778,1.8802,1.8875,1.8881,1.9024,1.9025,1.9018,1.902,1.9054,0,0,0,1.8437,1.8488,1.8497,1.8562,1.8579,1.8688,1.8719,1.8801,1.8862,1.8878,1.9025,1.9026,1.9018,1.902,1.9053,1.9079,1.9086,0,0,1.8485,1.8493,1.8534,1.8546,1.8646,1.8668,1.8768,1.8852,1.8886,1.8978,1.8982,1.9019,1.902,1.9054,1.9133,1.9139,0,0,0,1.8539,1.8568,1.8601,1.8658,1.8724,1.8781,1.8853,1.8885,1.8964,1.8927,1.904,1.9042,1.9063,1.9077,1.9081,1.9103,1.903,1.903,1.903,1.8565,1.8606,1.8678,1.8738,1.8793,1.8868,1.8917,1.8973,1.8997,1.9024,1.9052,1.9094,1.9109,1.9113,1.9135,1.9067,1.9067,1.9067,1.9067,1.8641,1.869,1.8724,1.8805,1.885,1.8919,1.8994,1.901,1.9082,1.9076,1.9097,1.9088,1.9118,1.9139,1.9067,1.9067,1.9067,1.9067,1.9067,1.8664,1.8695,1.8733,1.8822,1.8886,1.8945,1.9014,1.9051,1.9087,1.9107,1.9143,1.9143,1.915,1.9121,1.9121,1.9122,1.9122,1.9122,1.9122,1.8674,1.8717,1.877,1.8846,1.8889,1.895,1.9028,1.9072,1.913,1.9153,1.9153,1.9177,1.9112,1.9096,1.9124,1.9124,1.9124,1.9123,1.9123,1.8739,1.8731,1.8812,1.8856,1.895,1.9013,1.906,1.9147,1.9189,1.9222,1.9242,1.9187,1.9198,1.9194,1.9182,1.9231,1.9231,1.9231,1.9231,1.876,1.8769,1.8863,1.8931,1.9001,1.9052,1.9147,1.9208,1.9271,1.93,1.9298,1.9284,1.9279,1.9293,1.9287,1.9276,1.9349,1.9349,1.9349,1.8804,1.8822,1.8894,1.8955,1.9032,1.9098,1.9188,1.9266,1.9335,1.9354,1.9325,1.932,1.9297,1.9287,1.9306,1.9297,1.9277,0,0]}]]